When you browse on this site, cookies collect data to enhance your experience and personalize the content and advertising you see.
Visit our Privacy Policy to learn more. By continuing to use the site, you agree to this use of cookies and data.
  • In Austria
  • List of Countries
  • For 7 days
  • Water Temperature
  • Weather Map
  • News
  • Weather Widgets
  • user-avatar
    Login

    Hourly Weather Puerto Ayacucho

    Today, 25 January, Saturday

    Time Temperature Precipitation Wind Pressure Humidity
    00:00 +28°C° 0 mm 2 mps 750 mmHg 61%
    01:00 +27°C° 0 mm 2 mps 750 mmHg 66%
    02:00 +27°C° 0 mm 2 mps 749 mmHg 67%
    03:00 +26°C° 0 mm 3 mps 749 mmHg 69%
    04:00 +26°C° 0 mm 3 mps 749 mmHg 70%
    05:00 +26°C° 0 mm 3 mps 750 mmHg 71%
    06:00 +26°C° 0 mm 3 mps 751 mmHg 71%
    07:00 +27°C° 0 mm 3 mps 752 mmHg 72%
    08:00 +29°C° 0 mm 3 mps 752 mmHg 65%
    09:00 +31°C° 0 mm 2 mps 752 mmHg 57%
    10:00 +35°C° 0 mm 2 mps 752 mmHg 50%
    11:00 +36°C° 0 mm 2 mps 751 mmHg 46%
    12:00 +37°C° 0 mm 2 mps 750 mmHg 41%
    13:00 +38°C° 0 mm 2 mps 749 mmHg 37%
    14:00 +38°C° 0 mm 2 mps 749 mmHg 37%
    15:00 +38°C° 0 mm 2 mps 748 mmHg 36%
    16:00 +37°C° 0 mm 2 mps 748 mmHg 36%
    17:00 +36°C° 0 mm 2 mps 748 mmHg 38%
    18:00 +34°C° 0 mm 2 mps 749 mmHg 41%
    19:00 +31°C° 0 mm 2 mps 749 mmHg 43%
    20:00 +30°C° 0 mm 2 mps 750 mmHg 47%
    21:00 +29°C° 0 mm 2 mps 750 mmHg 51%
    22:00 +29°C° 0 mm 2 mps 751 mmHg 54%
    23:00 +28°C° 0 mm 2 mps 751 mmHg 58%

    Tomorrow, 26 January, Sunday

    Time Temperature Precipitation Wind Pressure Humidity
    00:00 +27°C° 0 mm 2 mps 750 mmHg 61%
    01:00 +27°C° 0 mm 1 mps 750 mmHg 64%
    02:00 +26°C° 0 mm 1 mps 750 mmHg 65%
    03:00 +26°C° 0 mm 1 mps 750 mmHg 67%
    04:00 +25°C° 0 mm 1 mps 750 mmHg 69%
    05:00 +26°C° 0 mm 1 mps 750 mmHg 68%
    06:00 +26°C° 0 mm 1 mps 751 mmHg 68%
    07:00 +27°C° 0 mm 2 mps 751 mmHg 67%
    08:00 +29°C° 0 mm 1 mps 752 mmHg 60%
    09:00 +32°C° 0 mm 1 mps 752 mmHg 53%
    10:00 +34°C° 0 mm 1 mps 752 mmHg 46%
    11:00 +35°C° 0 mm 1 mps 751 mmHg 43%
    12:00 +37°C° 0 mm 1 mps 750 mmHg 40%
    13:00 +39°C° 0 mm 1 mps 750 mmHg 37%
    14:00 +37°C° 0 mm 1 mps 749 mmHg 38%
    15:00 +37°C° 0 mm 1 mps 749 mmHg 39%
    16:00 +36°C° 0 mm 1 mps 748 mmHg 41%
    17:00 +35°C° 0 mm 1 mps 748 mmHg 45%
    18:00 +33°C° 0 mm 1 mps 749 mmHg 49%
    19:00 +31°C° 0 mm 1 mps 749 mmHg 54%
    20:00 +31°C° 0 mm 1 mps 750 mmHg 54%
    21:00 +30°C° 0 mm 1 mps 750 mmHg 55%
    22:00 +30°C° 0 mm 2 mps 751 mmHg 55%
    23:00 +29°C° 0 mm 2 mps 750 mmHg 58%

    Day after tomorrow, 27 January, Monday

    Time Temperature Precipitation Wind Pressure Humidity
    00:00 +28°C° 0 mm 1 mps 750 mmHg 60%
    01:00 +28°C° 0 mm 1 mps 750 mmHg 63%
    02:00 +27°C° 0 mm 1 mps 750 mmHg 65%
    03:00 +27°C° 0 mm 1 mps 750 mmHg 68%
    04:00 +26°C° 0 mm 1 mps 749 mmHg 70%
    05:00 +27°C° 0 mm 1 mps 750 mmHg 69%
    06:00 +27°C° 0 mm 1 mps 751 mmHg 68%
    07:00 +27°C° 0 mm 2 mps 752 mmHg 66%
    08:00 +30°C° 0 mm 2 mps 752 mmHg 59%
    09:00 +34°C° 0 mm 2 mps 752 mmHg 52%
    10:00 +36°C° 0 mm 2 mps 752 mmHg 45%
    11:00 +37°C° 0 mm 2 mps 751 mmHg 41%
    12:00 +38°C° 0 mm 2 mps 751 mmHg 37%
    13:00 +39°C° 0 mm 2 mps 750 mmHg 33%
    14:00 +39°C° 0 mm 2 mps 749 mmHg 33%
    15:00 +39°C° 0 mm 2 mps 748 mmHg 33%
    16:00 +39°C° 0 mm 2 mps 748 mmHg 33%
    17:00 +37°C° 0 mm 2 mps 748 mmHg 37%
    18:00 +33°C° 0 mm 1 mps 749 mmHg 40%
    19:00 +31°C° 0 mm 1 mps 749 mmHg 44%
    20:00 +30°C° 0 mm 1 mps 749 mmHg 47%
    21:00 +30°C° 0 mm 2 mps 750 mmHg 51%
    22:00 +29°C° 0 mm 2 mps 750 mmHg 54%
    23:00 +28°C° 0 mm 2 mps 750 mmHg 58%

    28 January, Tuesday

    Time Temperature Precipitation Wind Pressure Humidity
    00:00 +28°C° 0 mm 2 mps 750 mmHg 62%
    01:00 +27°C° 0 mm 2 mps 749 mmHg 66%
    02:00 +27°C° 0 mm 1 mps 749 mmHg 68%
    03:00 +27°C° 0 mm 1 mps 749 mmHg 70%
    04:00 +26°C° 0 mm 1 mps 749 mmHg 72%
    05:00 +27°C° 0 mm 2 mps 750 mmHg 71%
    06:00 +27°C° 0 mm 2 mps 750 mmHg 71%
    07:00 +28°C° 0 mm 2 mps 751 mmHg 71%
    08:00 +30°C° 0 mm 2 mps 751 mmHg 62%
    09:00 +34°C° 0 mm 2 mps 751 mmHg 54%
    10:00 +36°C° 0 mm 1 mps 751 mmHg 46%
    11:00 +37°C° 0 mm 1 mps 751 mmHg 42%
    12:00 +39°C° 0 mm 2 mps 750 mmHg 38%
    13:00 +40°C° 0 mm 2 mps 749 mmHg 34%
    14:00 +39°C° 0 mm 2 mps 748 mmHg 33%
    15:00 +39°C° 0 mm 2 mps 747 mmHg 33%
    16:00 +39°C° 0 mm 2 mps 747 mmHg 32%
    17:00 +37°C° 0 mm 2 mps 747 mmHg 37%
    18:00 +35°C° 0 mm 2 mps 748 mmHg 41%
    19:00 +32°C° 0 mm 2 mps 748 mmHg 46%
    20:00 +31°C° 0 mm 3 mps 748 mmHg 50%
    21:00 +31°C° 0 mm 3 mps 749 mmHg 54%
    22:00 +30°C° 0 mm 4 mps 749 mmHg 58%
    23:00 +29°C° 0 mm 4 mps 749 mmHg 61%

    29 January, Wednesday

    Time Temperature Precipitation Wind Pressure Humidity
    00:00 +29°C° 0 mm 3 mps 749 mmHg 64%
    01:00 +28°C° 0 mm 3 mps 748 mmHg 67%
    02:00 +28°C° 0 mm 3 mps 748 mmHg 69%
    03:00 +27°C° 0 mm 3 mps 748 mmHg 71%
    04:00 +27°C° 0 mm 2 mps 748 mmHg 72%
    05:00 +27°C° 0 mm 3 mps 749 mmHg 72%
    06:00 +28°C° 0 mm 3 mps 750 mmHg 71%
    07:00 +28°C° 0 mm 3 mps 750 mmHg 70%
    08:00 +31°C° 0 mm 3 mps 751 mmHg 63%
    09:00 +34°C° 0 mm 3 mps 751 mmHg 55%
    10:00 +37°C° 0 mm 3 mps 751 mmHg 47%
    11:00 +38°C° 0 mm 2 mps 750 mmHg 44%
    12:00 +39°C° 0 mm 2 mps 749 mmHg 41%
    13:00 +40°C° 0 mm 1 mps 749 mmHg 38%
    14:00 +39°C° 0 mm 1 mps 748 mmHg 39%
    15:00 +39°C° 0 mm 1 mps 747 mmHg 40%
    16:00 +37°C° 0 mm 1 mps 747 mmHg 41%
    17:00 +35°C° 0 mm 1 mps 747 mmHg 44%
    18:00 +34°C° 0 mm 1 mps 748 mmHg 47%
    19:00 +33°C° 0 mm 1 mps 748 mmHg 50%
    20:00 +32°C° 0 mm 2 mps 749 mmHg 53%
    21:00 +31°C° 0 mm 2 mps 749 mmHg 55%
    22:00 +31°C° 0 mm 3 mps 749 mmHg 58%
    23:00 +30°C° 0 mm 2 mps 749 mmHg 62%

    30 January, Thursday

    Time Temperature Precipitation Wind Pressure Humidity
    00:00 +29°C° 0 mm 2 mps 749 mmHg 66%
    01:00 +28°C° 0 mm 2 mps 749 mmHg 69%
    02:00 +28°C° 0 mm 2 mps 749 mmHg 69%
    03:00 +28°C° 0 mm 2 mps 749 mmHg 70%
    04:00 +28°C° 0 mm 2 mps 749 mmHg 70%
    05:00 +28°C° 0 mm 2 mps 749 mmHg 69%
    06:00 +28°C° 0 mm 2 mps 750 mmHg 69%
    07:00 +28°C° 0 mm 2 mps 751 mmHg 69%
    08:00 +31°C° 0 mm 2 mps 751 mmHg 61%
    09:00 +34°C° 0 mm 2 mps 751 mmHg 54%
    10:00 +36°C° 0 mm 2 mps 751 mmHg 46%
    11:00 +37°C° 0 mm 2 mps 750 mmHg 43%
    12:00 +39°C° 0 mm 2 mps 750 mmHg 39%
    13:00 +40°C° 0 mm 2 mps 749 mmHg 35%
    14:00 +39°C° 0 mm 2 mps 748 mmHg 35%
    15:00 +39°C° 0 mm 2 mps 748 mmHg 35%
    16:00 +39°C° 0 mm 1 mps 747 mmHg 35%
    17:00 +36°C° 0 mm 1 mps 748 mmHg 41%
    18:00 +34°C° 0 mm 1 mps 748 mmHg 48%
    19:00 +32°C° 0 mm 1 mps 749 mmHg 54%
    20:00 +31°C° 0 mm 1 mps 749 mmHg 57%
    21:00 +30°C° 0 mm 1 mps 749 mmHg 59%
    22:00 +29°C° 0 mm 1 mps 750 mmHg 62%
    23:00 +29°C° 0 mm 1 mps 749 mmHg 64%
    Show more